When you browse on this site, cookies collect data to enhance your experience and personalize the content and advertising you see.
Visit our Privacy Policy to learn more. By continuing to use the site, you agree to this use of cookies and data.
  • In Hungary
  • List of Countries
  • For 7 days
  • Water Temperature
  • Satellite Maps
  • Weather Map
  • News
  • Weather Widgets
  • user-avatar
    Login

    Hourly Weather Gaevcy (Polochany)

    Today, 16 November, Friday

    Time Temperature Precipitation Wind Pressure Humidity
    00:00 +1°C° 0 mm 2 mps 760 mmHg 89%
    01:00 +1°C° 0 mm 2 mps 760 mmHg 90%
    02:00 +1°C° 0 mm 1 mps 761 mmHg 91%
    03:00 +1°C° 0 mm 1 mps 761 mmHg 91%
    04:00 +1°C° 0 mm 1 mps 761 mmHg 92%
    05:00 +2°C° 0 mm 1 mps 761 mmHg 92%
    06:00 +1°C° 0 mm 2 mps 762 mmHg 92%
    07:00 +1°C° 0 mm 2 mps 762 mmHg 92%
    08:00 +1°C° 0 mm 2 mps 762 mmHg 92%
    09:00 +1°C° 0 mm 2 mps 763 mmHg 89%
    10:00 +1°C° 0 mm 2 mps 763 mmHg 86%
    11:00 +2°C° 0 mm 2 mps 763 mmHg 83%
    12:00 +2°C° 0 mm 2 mps 763 mmHg 80%
    13:00 +3°C° 0 mm 2 mps 763 mmHg 78%
    14:00 +3°C° 0 mm 2 mps 764 mmHg 75%
    15:00 +2°C° 0 mm 2 mps 764 mmHg 78%
    16:00 +1°C° 0 mm 2 mps 764 mmHg 81%
    17:00 -1°C° 0 mm 2 mps 763 mmHg 84%
    18:00 -1°C° 0 mm 2 mps 764 mmHg 82%
    19:00 -1°C° 0 mm 2 mps 764 mmHg 81%
    20:00 -2°C° 0 mm 2 mps 764 mmHg 79%
    21:00 -2°C° 0 mm 2 mps 764 mmHg 76%
    22:00 0°C° 0 mm 1 mps 764 mmHg 73%
    23:00 0°C° 0 mm 1 mps 764 mmHg 70%

    Tomorrow, 17 November, Saturday

    Time Temperature Precipitation Wind Pressure Humidity
    00:00 0°C° 0 mm 1 mps 764 mmHg 67%
    01:00 0°C° 0 mm 1 mps 764 mmHg 65%
    02:00 0°C° 0 mm 1 mps 764 mmHg 62%
    03:00 0°C° 0 mm 1 mps 764 mmHg 60%
    04:00 0°C° 0 mm 1 mps 764 mmHg 58%
    05:00 -1°C° 0 mm 0 mps 764 mmHg 57%
    06:00 -1°C° 0 mm 0 mps 764 mmHg 55%
    07:00 -1°C° 0 mm 0 mps 764 mmHg 54%
    08:00 -1°C° 0 mm 0 mps 763 mmHg 52%
    09:00 0°C° 0 mm 0 mps 763 mmHg 49%
    10:00 +1°C° 0 mm 0 mps 763 mmHg 45%
    11:00 +2°C° 0 mm 0 mps 763 mmHg 41%
    12:00 +3°C° 0 mm 0 mps 763 mmHg 42%
    13:00 +4°C° 0 mm 1 mps 762 mmHg 43%
    14:00 +4°C° 0 mm 1 mps 762 mmHg 45%
    15:00 +4°C° 0 mm 1 mps 761 mmHg 48%
    16:00 +3°C° 0 mm 1 mps 761 mmHg 52%
    17:00 +1°C° 0 mm 2 mps 760 mmHg 56%
    18:00 +1°C° 0 mm 2 mps 760 mmHg 59%
    19:00 +1°C° 0 mm 2 mps 759 mmHg 62%
    20:00 -1°C° 0 mm 2 mps 759 mmHg 65%
    21:00 -1°C° 0 mm 2 mps 758 mmHg 69%
    22:00 -1°C° 0 mm 3 mps 758 mmHg 73%
    23:00 -1°C° 0 mm 3 mps 757 mmHg 77%

    Day after tomorrow, 18 November, Sunday

    Time Temperature Precipitation Wind Pressure Humidity
    00:00 -1°C° 0 mm 3 mps 756 mmHg 81%
    01:00 -1°C° 0 mm 3 mps 756 mmHg 84%
    02:00 -1°C° 0 mm 3 mps 755 mmHg 88%
    03:00 -2°C° 0 mm 4 mps 754 mmHg 89%
    04:00 -1°C° 0 mm 4 mps 753 mmHg 90%
    05:00 -1°C° 0 mm 4 mps 753 mmHg 92%
    06:00 0°C° 0.1 mm 4 mps 752 mmHg 92%
    07:00 0°C° 0.1 mm 4 mps 751 mmHg 92%
    08:00 0°C° 0.1 mm 4 mps 751 mmHg 93%
    09:00 0°C° 0.1 mm 4 mps 750 mmHg 92%
    10:00 +1°C° 0.1 mm 4 mps 750 mmHg 91%
    11:00 +1°C° 0.1 mm 4 mps 750 mmHg 90%
    12:00 +1°C° 0.2 mm 4 mps 749 mmHg 90%
    13:00 +1°C° 0.2 mm 4 mps 749 mmHg 89%
    14:00 +1°C° 0.2 mm 4 mps 749 mmHg 89%
    15:00 +1°C° 0.3 mm 4 mps 749 mmHg 90%
    16:00 +1°C° 0.3 mm 4 mps 748 mmHg 91%
    17:00 +1°C° 0.3 mm 4 mps 748 mmHg 91%
    18:00 +1°C° 0.2 mm 4 mps 748 mmHg 91%
    19:00 +1°C° 0.2 mm 4 mps 748 mmHg 91%
    20:00 +1°C° 0.2 mm 5 mps 748 mmHg 90%
    21:00 +1°C° 0.2 mm 5 mps 748 mmHg 89%
    22:00 0°C° 0.2 mm 5 mps 748 mmHg 87%
    23:00 0°C° 0.2 mm 5 mps 748 mmHg 86%

    19 November, Monday

    Time Temperature Precipitation Wind Pressure Humidity
    00:00 0°C° 0.3 mm 5 mps 748 mmHg 86%
    01:00 -1°C° 0.3 mm 5 mps 748 mmHg 86%
    02:00 -1°C° 0.3 mm 5 mps 748 mmHg 87%
    03:00 -1°C° 0.1 mm 5 mps 748 mmHg 87%
    04:00 -1°C° 0.1 mm 4 mps 748 mmHg 88%
    05:00 -1°C° 0.1 mm 4 mps 748 mmHg 89%
    06:00 -1°C° 0 mm 4 mps 748 mmHg 89%
    07:00 -1°C° 0 mm 4 mps 748 mmHg 90%
    08:00 -1°C° 0 mm 4 mps 749 mmHg 90%
    09:00 0°C° 0 mm 4 mps 749 mmHg 89%
    10:00 0°C° 0 mm 4 mps 749 mmHg 88%
    11:00 0°C° 0 mm 5 mps 750 mmHg 88%
    12:00 0°C° 0.1 mm 4 mps 750 mmHg 87%
    13:00 0°C° 0.1 mm 4 mps 750 mmHg 87%
    14:00 +1°C° 0.1 mm 4 mps 750 mmHg 86%
    15:00 0°C° 0.1 mm 4 mps 750 mmHg 88%
    16:00 0°C° 0.1 mm 4 mps 750 mmHg 89%
    17:00 +1°C° 0.1 mm 3 mps 750 mmHg 90%
    18:00 +1°C° 0.1 mm 3 mps 750 mmHg 91%
    19:00 +1°C° 0.1 mm 3 mps 750 mmHg 91%
    20:00 +1°C° 0.1 mm 3 mps 750 mmHg 92%
    21:00 0°C° 0.1 mm 3 mps 750 mmHg 92%
    22:00 0°C° 0.1 mm 3 mps 750 mmHg 92%
    23:00 0°C° 0.1 mm 3 mps 750 mmHg 93%

    20 November, Tuesday

    Time Temperature Precipitation Wind Pressure Humidity
    00:00 0°C° 0 mm 3 mps 750 mmHg 92%
    01:00 0°C° 0 mm 3 mps 750 mmHg 92%
    02:00 0°C° 0 mm 3 mps 750 mmHg 92%
    03:00 -1°C° 0 mm 3 mps 750 mmHg 92%
    04:00 -1°C° 0 mm 3 mps 750 mmHg 93%
    05:00 -1°C° 0 mm 3 mps 750 mmHg 93%
    06:00 -2°C° 0 mm 3 mps 750 mmHg 92%
    07:00 -2°C° 0 mm 3 mps 750 mmHg 91%
    08:00 -2°C° 0 mm 3 mps 750 mmHg 91%
    09:00 -1°C° 0 mm 3 mps 750 mmHg 88%
    10:00 -1°C° 0 mm 3 mps 750 mmHg 85%
    11:00 -1°C° 0 mm 3 mps 750 mmHg 83%
    12:00 -1°C° 0 mm 3 mps 750 mmHg 80%
    13:00 -1°C° 0 mm 3 mps 749 mmHg 78%
    14:00 -1°C° 0 mm 3 mps 749 mmHg 76%
    15:00 -2°C° 0 mm 3 mps 749 mmHg 79%
    16:00 -4°C° 0 mm 3 mps 749 mmHg 82%
    17:00 -3°C° 0 mm 2 mps 749 mmHg 85%
    18:00 -4°C° 0 mm 3 mps 749 mmHg 86%
    19:00 -4°C° 0 mm 3 mps 749 mmHg 86%
    20:00 -4°C° 0 mm 3 mps 749 mmHg 86%
    21:00 -4°C° 0 mm 3 mps 749 mmHg 88%
    22:00 -4°C° 0 mm 3 mps 749 mmHg 89%
    23:00 -4°C° 0 mm 3 mps 749 mmHg 91%

    21 November, Wednesday

    Time Temperature Precipitation Wind Pressure Humidity
    00:00 -4°C° 0 mm 3 mps 748 mmHg 90%
    01:00 -3°C° 0 mm 4 mps 748 mmHg 89%
    02:00 -3°C° 0 mm 4 mps 748 mmHg 88%
    03:00 -3°C° 0 mm 4 mps 748 mmHg 87%
    04:00 -2°C° 0 mm 5 mps 748 mmHg 85%
    05:00 -2°C° 0 mm 5 mps 748 mmHg 84%
    06:00 -2°C° 0 mm 5 mps 748 mmHg 84%
    07:00 -2°C° 0 mm 5 mps 748 mmHg 84%
    08:00 -2°C° 0 mm 5 mps 748 mmHg 84%
    09:00 -2°C° 0 mm 5 mps 748 mmHg 84%
    10:00 -3°C° 0 mm 6 mps 748 mmHg 83%
    11:00 -2°C° 0 mm 6 mps 748 mmHg 82%
    12:00 -2°C° 0 mm 6 mps 748 mmHg 82%
    13:00 -2°C° 0 mm 6 mps 748 mmHg 83%
    14:00 -2°C° 0 mm 6 mps 748 mmHg 83%
    15:00 -2°C° 0 mm 6 mps 748 mmHg 84%
    16:00 -2°C° 0 mm 6 mps 748 mmHg 85%
    17:00 -2°C° 0 mm 6 mps 748 mmHg 86%
    18:00 -2°C° 0 mm 6 mps 748 mmHg 86%
    19:00 -2°C° 0 mm 6 mps 748 mmHg 86%
    20:00 -2°C° 0 mm 6 mps 748 mmHg 85%
    21:00 -2°C° 0 mm 6 mps 748 mmHg 85%
    22:00 -2°C° 0 mm 6 mps 748 mmHg 84%
    23:00 -2°C° 0 mm 6 mps 748 mmHg 84%
    Show more